TimeCST,TemperatureF,Dew PointF,Humidity,Sea Level PressureIn,VisibilityMPH,Wind Direction,Wind SpeedMPH,Gust SpeedMPH,PrecipitationIn,Events,Conditions,WindDirDegrees,DateUTC
12:15 AM,8.2,-1.5,65,29.83,4.0,West,21.9,33.4,N/A,,Haze,270,2014-01-27 06:15:00
12:35 AM,7.7,-2.0,65,29.85,5.0,West,21.9,29.9,N/A,,Haze,270,2014-01-27 06:35:00
12:55 AM,7.2,-2.2,66,29.86,7.0,West,19.6,29.9,N/A,,Clear,280,2014-01-27 06:55:00
1:15 AM,6.8,-2.4,66,29.89,7.0,West,24.2,29.9,N/A,,Clear,270,2014-01-27 07:15:00
1:35 AM,6.8,-2.2,67,29.90,10.0,West,13.8,-,N/A,,Mostly Cloudy,270,2014-01-27 07:35:00
1:55 AM,6.4,-4.5,61,29.92,7.0,West,18.4,28.8,N/A,,Scattered Clouds,270,2014-01-27 07:55:00
2:15 AM,5.7,-5.4,60,29.94,7.0,West,16.1,28.8,N/A,,Clear,280,2014-01-27 08:15:00
2:35 AM,5.2,-6.2,60,29.96,10.0,West,17.3,26.5,N/A,,Clear,270,2014-01-27 08:35:00
2:55 AM,5.0,-6.7,59,29.98,10.0,West,19.6,26.5,N/A,,Clear,280,2014-01-27 08:55:00
3:15 AM,4.5,-7.2,58,30.00,10.0,West,20.7,26.5,N/A,,Clear,280,2014-01-27 09:15:00
3:35 AM,3.9,-7.6,59,30.01,10.0,West,20.7,27.6,N/A,,Clear,280,2014-01-27 09:35:00
4:45 AM,3.2,-9.4,56,30.06,10.0,West,19.6,-,N/A,,Partly Cloudy,280,2014-01-27 10:45:00
5:45 AM,1.4,-9.4,61,30.11,10.0,West,17.3,28.8,N/A,,Partly Cloudy,270,2014-01-27 11:45:00
6:45 AM,1.4,-9.4,61,30.14,10.0,West,16.1,28.8,N/A,,Partly Cloudy,280,2014-01-27 12:45:00
7:45 AM,-0.4,-9.4,66,30.17,20.0,WNW,19.6,31.1,N/A,,Partly Cloudy,290,2014-01-27 13:45:00
8:45 AM,-0.4,-11.2,60,30.21,20.0,WNW,16.1,27.6,N/A,,Scattered Clouds,290,2014-01-27 14:45:00
9:45 AM,1.4,-13.0,51,30.23,20.0,West,19.6,31.1,N/A,,Scattered Clouds,280,2014-01-27 15:45:00
10:45 AM,1.4,-11.2,56,30.25,20.0,West,17.3,28.8,N/A,,Mostly Cloudy,270,2014-01-27 16:45:00
11:45 AM,1.4,-13.0,51,30.25,20.0,West,13.8,27.6,N/A,,Mostly Cloudy,260,2014-01-27 17:45:00
12:45 PM,1.4,-11.2,56,30.26,15.0,West,17.3,28.8,N/A,,Mostly Cloudy,270,2014-01-27 18:45:00
1:45 PM,1.4,-13.0,51,30.27,15.0,WSW,17.3,28.8,N/A,,Mostly Cloudy,250,2014-01-27 19:45:00
2:45 PM,-0.4,-13.0,55,30.30,10.0,West,17.3,32.2,N/A,,Mostly Cloudy,280,2014-01-27 20:45:00
3:45 PM,-0.4,-16.6,46,30.33,10.0,West,17.3,28.8,N/A,,Partly Cloudy,270,2014-01-27 21:45:00
4:45 PM,-2.2,-16.6,50,30.35,10.0,North,-9999.0,-,N/A,,Partly Cloudy,0,2014-01-27 22:45:00
5:45 PM,-4.0,-16.6,55,30.37,10.0,West,13.8,25.3,N/A,,Partly Cloudy,280,2014-01-27 23:45:00
6:45 PM,-4.0,-18.4,50,30.40,10.0,West,13.8,28.8,N/A,,Partly Cloudy,270,2014-01-28 00:45:00
7:45 PM,-4.0,-18.4,50,30.40,10.0,West,11.5,23.0,N/A,,Partly Cloudy,280,2014-01-28 01:45:00
8:15 PM,-4.4,-18.4,51,30.40,10.0,West,12.7,-,N/A,,Clear,270,2014-01-28 02:15:00
8:35 PM,-4.5,-18.6,51,30.40,10.0,West,9.2,18.4,N/A,,Clear,280,2014-01-28 02:35:00
8:45 PM,-4.0,-18.4,50,30.41,10.0,West,11.5,23.0,N/A,,Partly Cloudy,280,2014-01-28 02:45:00
8:55 PM,-4.5,-18.8,51,30.41,10.0,West,11.5,-,N/A,,Clear,280,2014-01-28 02:55:00
9:15 PM,-4.4,-18.4,51,30.41,10.0,West,15.0,19.6,N/A,,Clear,270,2014-01-28 03:15:00
9:35 PM,-4.9,-17.3,55,30.42,10.0,WSW,5.8,-,N/A,,Clear,250,2014-01-28 03:35:00
9:45 PM,-5.8,-16.6,60,30.43,10.0,West,11.5,23.0,N/A,,Clear,270,2014-01-28 03:45:00
9:55 PM,-5.1,-16.6,58,30.42,10.0,West,10.4,-,N/A,,Clear,260,2014-01-28 03:55:00
10:15 PM,-5.8,-16.4,60,30.43,10.0,WSW,8.1,-,N/A,,Clear,250,2014-01-28 04:15:00
10:35 PM,-6.0,-16.1,62,30.43,10.0,WSW,3.5,-,N/A,,Clear,250,2014-01-28 04:35:00
10:55 PM,-5.8,-15.3,63,30.43,10.0,Calm,Calm,-,N/A,,Clear,0,2014-01-28 04:55:00
11:15 PM,-6.2,-15.9,63,30.43,10.0,West,10.4,-,N/A,,Clear,260,2014-01-28 05:15:00
11:35 PM,-6.5,-16.2,63,30.42,10.0,West,10.4,-,N/A,,Clear,270,2014-01-28 05:35:00
11:55 PM,-6.9,-16.6,63,30.42,10.0,West,8.1,-,N/A,,Clear,270,2014-01-28 05:55:00